| time (UTC) | temp C | wind direction | speed KPH | gust KPH | rain 1hr cm | rain 24hr cm | rain mn cm | humidity % | barometer mb |
| 20260903074622 | 15 | 305 | 0.0 | 4.8 | 0.00 | 0.00 | 0.00 | 53 | 1025.7 |
| 20260903074115 | 15 | 20 | 0.0 | 4.8 | 0.00 | 0.00 | 0.00 | 53 | 1025.7 |
| 20260903073614 | 15 | 288 | 0.0 | 0.0 | 0.00 | 0.00 | 0.00 | 53 | 1025.7 |
| 20260903073127 | 15 | 288 | 0.0 | 0.0 | 0.00 | 0.00 | 0.00 | 53 | 1025.7 |
| 20260903072620 | 16 | 288 | 0.0 | 0.0 | 0.00 | 0.00 | 0.00 | 51 | 1025.6 |
| 20260903072114 | 16 | 288 | 0.0 | 0.0 | 0.00 | 0.00 | 0.00 | 52 | 1025.7 |
| 20260903071628 | 16 | 288 | 0.0 | 0.0 | 0.00 | 0.00 | 0.00 | 51 | 1025.7 |
| 20260903071101 | 16 | 288 | 0.0 | 0.0 | 0.00 | 0.00 | 0.00 | 48 | 1025.6 |
| 20260903070636 | 17 | 288 | 0.0 | 0.0 | 0.00 | 0.00 | 0.00 | 49 | 1025.5 |
| 20260903070109 | 17 | 288 | 0.0 | 0.0 | 0.00 | 0.00 | 0.00 | 47 | 1025.5 |
| 20260903065603 | 18 | 288 | 0.0 | 0.0 | 0.00 | 0.00 | 0.00 | 45 | 1025.5 |
| 20260903065117 | 18 | 288 | 0.0 | 1.6 | 0.00 | 0.00 | 0.00 | 40 | 1025.6 |
| 20260903064634 | 18 | 288 | 0.0 | 3.2 | 0.00 | 0.00 | 0.00 | 42 | 1025.5 |
| 20260903064107 | 18 | 288 | 1.6 | 4.8 | 0.00 | 0.00 | 0.00 | 39 | 1025.6 |
| 20260903063620 | 19 | 148 | 0.0 | 4.8 | 0.00 | 0.00 | 0.00 | 38 | 1025.5 |
| 20260903063114 | 19 | 148 | 0.0 | 9.7 | 0.00 | 0.00 | 0.00 | 38 | 1025.5 |
| 20260903062608 | 19 | 156 | 6.4 | 9.7 | 0.00 | 0.00 | 0.00 | 36 | 1025.5 |
| 20260903062102 | 20 | 147 | 3.2 | 6.4 | 0.00 | 0.00 | 0.00 | 37 | 1025.4 |
| 20260903061616 | 20 | 82 | 0.0 | 0.0 | 0.00 | 0.00 | 0.00 | 37 | 1025.3 |
| 20260903061111 | 20 | 119 | 0.0 | 0.0 | 0.00 | 0.00 | 0.00 | 37 | 1025.3 |
| 20260903060608 | 20 | 119 | 0.0 | 1.6 | 0.00 | 0.00 | 0.00 | 36 | 1025.3 |
| 20260903055635 | 20 | 233 | 1.6 | 4.8 | 0.00 | 0.00 | 0.00 | 37 | 1025.2 |
| 20260903055129 | 20 | 278 | 1.6 | 3.2 | 0.00 | 0.00 | 0.00 | 38 | 1025.2 |
| 20260903054602 | 20 | 99 | 1.6 | 8.0 | 0.00 | 0.00 | 0.00 | 37 | 1025.2 |
| 20260903054115 | 20 | 74 | 3.2 | 8.0 | 0.00 | 0.00 | 0.00 | 37 | 1025.2 |
| 20260903053629 | 20 | 24 | 1.6 | 4.8 | 0.00 | 0.00 | 0.00 | 37 | 1025.2 |
| 20260903053102 | 20 | 24 | 1.6 | 4.8 | 0.00 | 0.00 | 0.00 | 34 | 1025.2 |
| 20260903052616 | 20 | 56 | 0.0 | 4.8 | 0.00 | 0.00 | 0.00 | 35 | 1025.3 |
| 20260903052114 | 20 | 31 | 1.6 | 4.8 | 0.00 | 0.00 | 0.00 | 35 | 1025.3 |
| 20260903051628 | 20 | 11 | 1.6 | 4.8 | 0.00 | 0.00 | 0.00 | 34 | 1025.3 |
| 20260903051102 | 20 | 342 | 1.6 | 6.4 | 0.00 | 0.00 | 0.00 | 35 | 1025.3 |
| 20260903050616 | 20 | 22 | 3.2 | 6.4 | 0.00 | 0.00 | 0.00 | 36 | 1025.3 |
| 20260903050108 | 20 | 27 | 1.6 | 3.2 | 0.00 | 0.00 | 0.00 | 34 | 1025.4 |
| 20260903045602 | 20 | 28 | 1.6 | 3.2 | 0.00 | 0.00 | 0.00 | 36 | 1025.4 |
| 20260903045116 | 20 | 291 | 1.6 | 3.2 | 0.00 | 0.00 | 0.00 | 34 | 1025.4 |
| 20260903044610 | 20 | 292 | 0.0 | 4.8 | 0.00 | 0.00 | 0.00 | 36 | 1025.4 |
| 20260903044108 | 20 | 13 | 3.2 | 4.8 | 0.00 | 0.00 | 0.00 | 34 | 1025.4 |
| 20260903043603 | 20 | 34 | 1.6 | 3.2 | 0.00 | 0.00 | 0.00 | 35 | 1025.5 |
| 20260903043118 | 20 | 34 | 0.0 | 4.8 | 0.00 | 0.00 | 0.00 | 36 | 1025.5 |
| 20260903042611 | 20 | 34 | 3.2 | 4.8 | 0.00 | 0.00 | 0.00 | 36 | 1025.5 |
| 20260903042105 | 20 | 38 | 0.0 | 8.0 | 0.00 | 0.00 | 0.00 | 36 | 1025.5 |
| 20260903041639 | 20 | 38 | 1.6 | 8.0 | 0.00 | 0.00 | 0.00 | 35 | 1025.4 |
| 20260903041111 | 20 | 42 | 1.6 | 4.8 | 0.00 | 0.00 | 0.00 | 37 | 1025.5 |
| 20260903040605 | 20 | 315 | 1.6 | 4.8 | 0.00 | 0.00 | 0.00 | 37 | 1025.6 |
| 20260903040139 | 20 | 286 | 1.6 | 4.8 | 0.00 | 0.00 | 0.00 | 39 | 1025.5 |
| 20260903035632 | 19 | 286 | 1.6 | 4.8 | 0.00 | 0.00 | 0.00 | 38 | 1025.5 |
| 20260903035109 | 19 | 296 | 1.6 | 3.2 | 0.00 | 0.00 | 0.00 | 37 | 1025.6 |
| 20260903034602 | 18 | 23 | 1.6 | 4.8 | 0.00 | 0.00 | 0.00 | 39 | 1025.5 |
| 20260903034116 | 18 | 26 | 1.6 | 4.8 | 0.00 | 0.00 | 0.00 | 40 | 1025.4 |
| 20260903033609 | 18 | 298 | 1.6 | 4.8 | 0.00 | 0.00 | 0.00 | 40 | 1025.5 |
| 20260903033104 | 18 | 236 | 1.6 | 4.8 | 0.00 | 0.00 | 0.00 | 41 | 1025.5 |
| 20260903032617 | 18 | 236 | 1.6 | 3.2 | 0.00 | 0.00 | 0.00 | 43 | 1025.5 |
| 20260903032111 | 18 | 236 | 0.0 | 0.0 | 0.00 | 0.00 | 0.00 | 41 | 1025.5 |
| 20260903031605 | 18 | 236 | 0.0 | 0.0 | 0.00 | 0.00 | 0.00 | 42 | 1025.4 |
| 20260903031103 | 18 | 236 | 0.0 | 0.0 | 0.00 | 0.00 | 0.00 | 43 | 1025.5 |
| 20260903030618 | 18 | 236 | 0.0 | 0.0 | 0.00 | 0.00 | 0.00 | 42 | 1025.4 |
| 20260903030110 | 18 | 236 | 0.0 | 0.0 | 0.00 | 0.00 | 0.00 | 42 | 1025.4 |
| 20260903025605 | 18 | 236 | 0.0 | 0.0 | 0.00 | 0.00 | 0.00 | 47 | 1025.3 |
| 20260903025118 | 18 | 236 | 0.0 | 0.0 | 0.00 | 0.00 | 0.00 | 46 | 1025.2 |
| 20260903024612 | 18 | 236 | 0.0 | 0.0 | 0.00 | 0.00 | 0.00 | 45 | 1025.2 |
| 20260903024105 | 18 | 236 | 0.0 | 0.0 | 0.00 | 0.00 | 0.00 | 44 | 1025.1 |
| 20260903023603 | 18 | 236 | 0.0 | 0.0 | 0.00 | 0.00 | 0.00 | 39 | 1025.0 |
| 20260903023118 | 18 | 236 | 0.0 | 0.0 | 0.00 | 0.00 | 0.00 | 39 | 1025.0 |
| 20260903022611 | 18 | 236 | 0.0 | 0.0 | 0.00 | 0.00 | 0.00 | 41 | 1024.9 |
| 20260903022106 | 19 | 236 | 0.0 | 0.0 | 0.00 | 0.00 | 0.00 | 39 | 1024.8 |
| 20260903021640 | 19 | 236 | 0.0 | 0.0 | 0.00 | 0.00 | 0.00 | 39 | 1024.8 |
| 20260903021135 | 19 | 236 | 0.0 | 0.0 | 0.00 | 0.00 | 0.00 | 38 | 1024.8 |
| 20260903020609 | 19 | 236 | 0.0 | 0.0 | 0.00 | 0.00 | 0.00 | 39 | 1024.8 |
| 20260903020104 | 20 | 236 | 0.0 | 0.0 | 0.00 | 0.00 | 0.00 | 38 | 1024.7 |
| 20260903015618 | 20 | 236 | 0.0 | 0.0 | 0.00 | 0.00 | 0.00 | 38 | 1024.7 |
| 20260903015132 | 20 | 236 | 0.0 | 0.0 | 0.00 | 0.00 | 0.00 | 36 | 1024.6 |
| 20260903014609 | 21 | 236 | 0.0 | 0.0 | 0.00 | 0.00 | 0.00 | 36 | 1024.6 |
| 20260903014123 | 21 | 236 | 0.0 | 0.0 | 0.00 | 0.00 | 0.00 | 35 | 1024.6 |
| 20260903013635 | 21 | 236 | 0.0 | 0.0 | 0.00 | 0.00 | 0.00 | 36 | 1024.5 |
| 20260903013108 | 22 | 236 | 0.0 | 0.0 | 0.00 | 0.00 | 0.00 | 36 | 1024.5 |
| 20260903012602 | 22 | 236 | 0.0 | 0.0 | 0.00 | 0.00 | 0.00 | 33 | 1024.5 |
| 20260903012115 | 22 | 236 | 0.0 | 0.0 | 0.00 | 0.00 | 0.00 | 35 | 1024.6 |
| 20260903011609 | 23 | 236 | 0.0 | 0.0 | 0.00 | 0.00 | 0.00 | 35 | 1024.5 |
| 20260903011104 | 23 | 236 | 0.0 | 0.0 | 0.00 | 0.00 | 0.00 | 31 | 1024.4 |
| 20260903010618 | 23 | 236 | 0.0 | 0.0 | 0.00 | 0.00 | 0.00 | 30 | 1024.5 |
| 20260903010116 | 24 | 236 | 0.0 | 0.0 | 0.00 | 0.00 | 0.00 | 30 | 1024.6 |
| 20260903005610 | 24 | 236 | 0.0 | 0.0 | 0.00 | 0.00 | 0.00 | 29 | 1024.5 |
| 20260903005123 | 24 | 236 | 0.0 | 4.8 | 0.00 | 0.00 | 0.00 | 27 | 1024.5 |
| 20260903004616 | 25 | 236 | 1.6 | 4.8 | 0.00 | 0.00 | 0.00 | 27 | 1024.5 |
| 20260903004110 | 25 | 44 | 0.0 | 1.6 | 0.00 | 0.00 | 0.00 | 27 | 1024.5 |
| 20260903003605 | 25 | 44 | 0.0 | 3.2 | 0.00 | 0.00 | 0.00 | 27 | 1024.6 |
| 20260903003138 | 25 | 107 | 1.6 | 3.2 | 0.00 | 0.00 | 0.00 | 25 | 1024.5 |
| 20260903002611 | 26 | 219 | 0.0 | 3.2 | 0.00 | 0.00 | 0.00 | 26 | 1024.6 |
| 20260903002104 | 26 | 219 | 1.6 | 8.0 | 0.00 | 0.00 | 0.00 | 23 | 1024.5 |
| 20260903001603 | 26 | 51 | 1.6 | 8.0 | 0.00 | 0.00 | 0.00 | 23 | 1024.6 |
| 20260903001116 | 27 | 325 | 1.6 | 8.0 | 0.00 | 0.00 | 0.00 | 23 | 1024.5 |
| 20260903000610 | 27 | 355 | 1.6 | 8.0 | 0.00 | 0.00 | 0.00 | 23 | 1024.6 |
| 20260902235618 | 26 | 193 | 1.6 | 4.8 | 0.00 | 0.00 | 0.00 | 23 | 1024.6 |
| 20260902235111 | 27 | 314 | 1.6 | 3.2 | 0.00 | 0.00 | 0.00 | 24 | 1024.7 |
| 20260902234604 | 27 | 160 | 0.0 | 6.4 | 0.00 | 0.00 | 0.00 | 25 | 1024.6 |
| 20260902234119 | 27 | 160 | 1.6 | 6.4 | 0.00 | 0.00 | 0.00 | 23 | 1024.7 |
| 20260902233616 | 27 | 302 | 3.2 | 11.3 | 0.00 | 0.00 | 0.00 | 24 | 1024.7 |
| 20260902233110 | 26 | 226 | 3.2 | 11.3 | 0.00 | 0.00 | 0.00 | 24 | 1024.8 |
| 20260902232604 | 27 | 350 | 4.8 | 12.9 | 0.00 | 0.00 | 0.00 | 24 | 1024.8 |
| 20260902232117 | 27 | 222 | 1.6 | 12.9 | 0.00 | 0.00 | 0.00 | 24 | 1024.9 |
| 20260902231612 | 27 | 238 | 1.6 | 4.8 | 0.00 | 0.00 | 0.00 | 24 | 1024.8 |
| 20260902231104 | 26 | 42 | 1.6 | 4.8 | 0.00 | 0.00 | 0.00 | 27 | 1024.8 |
| 20260902230617 | 26 | 74 | 3.2 | 4.8 | 0.00 | 0.00 | 0.00 | 25 | 1024.9 |
| 20260902230111 | 26 | 331 | 3.2 | 4.8 | 0.00 | 0.00 | 0.00 | 24 | 1024.9 |
| 20260902225609 | 26 | 155 | 1.6 | 6.4 | 0.00 | 0.00 | 0.00 | 24 | 1024.9 |
| 20260902225103 | 27 | 332 | 3.2 | 8.0 | 0.00 | 0.00 | 0.00 | 24 | 1025.0 |
| 20260902224616 | 27 | 5 | 3.2 | 8.0 | 0.00 | 0.00 | 0.00 | 25 | 1025.1 |
| 20260902224130 | 27 | 254 | 3.2 | 8.0 | 0.00 | 0.00 | 0.00 | 24 | 1025.0 |
| 20260902223624 | 26 | 153 | 1.6 | 8.0 | 0.00 | 0.00 | 0.00 | 26 | 1025.0 |
| 20260902223117 | 26 | 242 | 3.2 | 8.0 | 0.00 | 0.00 | 0.00 | 25 | 1025.0 |
| 20260902222611 | 26 | 26 | 1.6 | 4.8 | 0.00 | 0.00 | 0.00 | 26 | 1025.1 |
| 20260902222105 | 26 | 338 | 1.6 | 9.7 | 0.00 | 0.00 | 0.00 | 26 | 1025.2 |
| 20260902221618 | 26 | 79 | 3.2 | 9.7 | 0.00 | 0.00 | 0.00 | 25 | 1025.3 |
| 20260902221116 | 27 | 297 | 1.6 | 12.9 | 0.00 | 0.00 | 0.00 | 25 | 1025.3 |
| 20260902220610 | 27 | 351 | 3.2 | 12.9 | 0.00 | 0.00 | 0.00 | 25 | 1025.2 |
| 20260902220104 | 28 | 51 | 6.4 | 12.9 | 0.00 | 0.00 | 0.00 | 23 | 1025.1 |
| 20260902215638 | 28 | 235 | 3.2 | 6.4 | 0.00 | 0.00 | 0.00 | 23 | 1025.1 |
| 20260902215110 | 28 | 145 | 3.2 | 6.4 | 0.00 | 0.00 | 0.00 | 22 | 1025.2 |
| 20260902214604 | 28 | 265 | 4.8 | 9.7 | 0.00 | 0.00 | 0.00 | 22 | 1025.3 |
| 20260902214117 | 28 | 191 | 3.2 | 9.7 | 0.00 | 0.00 | 0.00 | 24 | 1025.3 |
| 20260902213632 | 28 | 214 | 3.2 | 8.0 | 0.00 | 0.00 | 0.00 | 24 | 1025.4 |
| 20260902213104 | 27 | 312 | 1.6 | 11.3 | 0.00 | 0.03 | 0.00 | 23 | 1025.4 |
| 20260902212638 | 27 | 306 | 3.2 | 11.3 | 0.00 | 0.03 | 0.00 | 24 | 1025.5 |
| 20260902212115 | 27 | 34 | 3.2 | 8.0 | 0.00 | 0.03 | 0.00 | 24 | 1025.6 |
| 20260902211607 | 27 | 355 | 3.2 | 6.4 | 0.00 | 0.03 | 0.00 | 25 | 1025.5 |
| 20260902211102 | 27 | 216 | 3.2 | 11.3 | 0.00 | 0.03 | 0.00 | 25 | 1025.5 |
| 20260902210616 | 27 | 173 | 4.8 | 11.3 | 0.00 | 0.03 | 0.00 | 24 | 1025.7 |
| 20260902210110 | 27 | 92 | 3.2 | 12.9 | 0.00 | 0.03 | 0.00 | 24 | 1025.8 |
| 20260902205624 | 27 | 327 | 4.8 | 12.9 | 0.00 | 0.03 | 0.00 | 23 | 1025.8 |
| 20260902205118 | 27 | 273 | 3.2 | 14.5 | 0.00 | 0.03 | 0.00 | 25 | 1025.8 |
| 20260902204613 | 26 | 26 | 4.8 | 14.5 | 0.00 | 0.03 | 0.00 | 26 | 1026.0 |
| 20260902204109 | 26 | 315 | 4.8 | 11.3 | 0.00 | 0.03 | 0.00 | 25 | 1026.0 |
| 20260902203604 | 25 | 11 | 0.0 | 0.0 | 0.00 | 0.03 | 0.00 | 26 | 1026.1 |
| 20260902203118 | 25 | 26 | 0.0 | 3.2 | 0.00 | 0.05 | 0.00 | 30 | 1026.2 |
| 20260902202612 | 26 | 161 | 1.6 | 12.9 | 0.00 | 0.05 | 0.00 | 34 | 1026.2 |
| 20260902202106 | 26 | 141 | 6.4 | 12.9 | 0.00 | 0.05 | 0.00 | 32 | 1026.2 |
| 20260902201639 | 26 | 277 | 3.2 | 9.7 | 0.00 | 0.05 | 0.00 | 34 | 1026.4 |
| 20260902201114 | 25 | 355 | 1.6 | 6.4 | 0.00 | 0.05 | 0.00 | 37 | 1026.4 |
| 20260902200607 | 25 | 78 | 3.2 | 11.3 | 0.00 | 0.05 | 0.00 | 36 | 1026.4 |
| 20260902200106 | 25 | 212 | 0.0 | 11.3 | 0.00 | 0.05 | 0.00 | 36 | 1026.4 |
| 20260902195620 | 25 | 143 | 3.2 | 6.4 | 0.00 | 0.05 | 0.00 | 39 | 1026.6 |
| 20260902195114 | 24 | 221 | 3.2 | 4.8 | 0.00 | 0.05 | 0.00 | 37 | 1026.8 |
| 20260902194607 | 24 | 136 | 0.0 | 6.4 | 0.00 | 0.05 | 0.00 | 40 | 1026.9 |
| 20260902194121 | 24 | 134 | 3.2 | 6.4 | 0.00 | 0.05 | 0.00 | 38 | 1026.9 |
| 20260902193615 | 24 | 139 | 3.2 | 8.0 | 0.00 | 0.05 | 0.00 | 40 | 1026.9 |
| 20260902193109 | 24 | 141 | 3.2 | 11.3 | 0.00 | 0.05 | 0.00 | 40 | 1026.9 |
| 20260902192604 | 24 | 136 | 4.8 | 14.5 | 0.00 | 0.05 | 0.00 | 39 | 1027.1 |
| 20260902192103 | 24 | 155 | 8.0 | 14.5 | 0.00 | 0.05 | 0.00 | 39 | 1027.1 |
| 20260902191616 | 24 | 143 | 6.4 | 11.3 | 0.00 | 0.05 | 0.00 | 40 | 1027.1 |
| 20260902191110 | 25 | 213 | 3.2 | 4.8 | 0.00 | 0.05 | 0.00 | 40 | 1027.3 |
| 20260902190624 | 24 | 128 | 3.2 | 8.0 | 0.00 | 0.05 | 0.00 | 41 | 1027.4 |
| 20260902190117 | 24 | 136 | 3.2 | 8.0 | 0.00 | 0.05 | 0.00 | 42 | 1027.5 |
| 20260902185611 | 23 | 110 | 3.2 | 8.0 | 0.00 | 0.05 | 0.00 | 42 | 1027.6 |
| 20260902185105 | 23 | 144 | 3.2 | 6.4 | 0.00 | 0.05 | 0.00 | 46 | 1027.7 |
| 20260902184619 | 22 | 44 | 3.2 | 6.4 | 0.00 | 0.05 | 0.00 | 44 | 1027.7 |
| 20260902184117 | 22 | 152 | 0.0 | 4.8 | 0.00 | 0.05 | 0.00 | 47 | 1027.9 |
| 20260902183611 | 22 | 44 | 1.6 | 6.4 | 0.00 | 0.05 | 0.00 | 46 | 1027.8 |
| 20260902183105 | 23 | 44 | 3.2 | 8.0 | 0.00 | 0.05 | 0.00 | 44 | 1028.0 |
| 20260902182619 | 23 | 55 | 4.8 | 8.0 | 0.00 | 0.05 | 0.00 | 43 | 1028.1 |
| 20260902182113 | 23 | 46 | 3.2 | 8.0 | 0.00 | 0.05 | 0.00 | 43 | 1028.1 |
| 20260902181607 | 23 | 41 | 3.2 | 9.7 | 0.00 | 0.05 | 0.00 | 44 | 1028.2 |
| 20260902181120 | 23 | 146 | 4.8 | 9.7 | 0.00 | 0.05 | 0.00 | 45 | 1028.2 |
| 20260902180614 | 24 | 32 | 4.8 | 8.0 | 0.00 | 0.05 | 0.00 | 42 | 1028.2 |
| 20260902180112 | 24 | 84 | 1.6 | 8.0 | 0.00 | 0.05 | 0.00 | 45 | 1028.2 |
| 20260902175626 | 24 | 140 | 3.2 | 8.0 | 0.00 | 0.05 | 0.00 | 46 | 1028.2 |
| 20260902175120 | 23 | 97 | 3.2 | 8.0 | 0.00 | 0.05 | 0.00 | 45 | 1028.3 |
| 20260902174614 | 23 | 157 | 6.4 | 9.7 | 0.00 | 0.05 | 0.00 | 46 | 1028.3 |
| 20260902174107 | 23 | 145 | 0.0 | 11.3 | 0.00 | 0.05 | 0.00 | 46 | 1028.5 |
| 20260902173601 | 23 | 157 | 4.8 | 11.3 | 0.00 | 0.05 | 0.00 | 45 | 1028.5 |
| 20260902173115 | 23 | 97 | 1.6 | 11.3 | 0.00 | 0.05 | 0.00 | 47 | 1028.5 |
| 20260902172629 | 22 | 117 | 4.8 | 12.9 | 0.00 | 0.05 | 0.00 | 48 | 1028.5 |
| 20260902172107 | 22 | 163 | 6.4 | 12.9 | 0.00 | 0.05 | 0.00 | 47 | 1028.6 |
| 20260902171640 | 22 | 192 | 3.2 | 12.9 | 0.00 | 0.05 | 0.00 | 47 | 1028.6 |
| 20260902171113 | 22 | 120 | 3.2 | 12.9 | 0.00 | 0.05 | 0.00 | 50 | 1028.7 |
| 20260902170607 | 22 | 140 | 4.8 | 12.9 | 0.00 | 0.05 | 0.00 | 49 | 1028.7 |
| 20260902165615 | 22 | 71 | 3.2 | 8.0 | 0.00 | 0.05 | 0.00 | 52 | 1028.8 |
| 20260902165109 | 22 | 157 | 3.2 | 11.3 | 0.00 | 0.05 | 0.00 | 50 | 1028.8 |
| 20260902164622 | 22 | 53 | 1.6 | 12.9 | 0.00 | 0.05 | 0.00 | 52 | 1028.8 |
| 20260902164116 | 22 | 158 | 4.8 | 12.9 | 0.00 | 0.05 | 0.00 | 53 | 1028.7 |
| 20260902163614 | 22 | 132 | 3.2 | 9.7 | 0.00 | 0.05 | 0.00 | 55 | 1028.7 |
| 20260902163108 | 21 | 139 | 1.6 | 11.3 | 0.00 | 0.05 | 0.00 | 55 | 1028.6 |
| 20260902162621 | 21 | 163 | 3.2 | 11.3 | 0.00 | 0.05 | 0.00 | 58 | 1028.6 |
| 20260902162116 | 21 | 56 | 1.6 | 8.0 | 0.00 | 0.05 | 0.00 | 57 | 1028.6 |
| 20260902161630 | 21 | 142 | 1.6 | 4.8 | 0.00 | 0.05 | 0.00 | 58 | 1028.6 |
| 20260902161122 | 20 | 56 | 3.2 | 4.8 | 0.00 | 0.05 | 0.00 | 57 | 1028.6 |
| 20260902160616 | 20 | 104 | 0.0 | 4.8 | 0.00 | 0.05 | 0.00 | 57 | 1028.7 |
| 20260902160110 | 21 | 105 | 0.0 | 9.7 | 0.00 | 0.05 | 0.00 | 58 | 1028.6 |
| 20260902155603 | 21 | 148 | 4.8 | 9.7 | 0.00 | 0.05 | 0.00 | 54 | 1028.5 |
| 20260902155121 | 21 | 162 | 3.2 | 8.0 | 0.00 | 0.05 | 0.00 | 58 | 1028.6 |
| 20260902154615 | 20 | 153 | 3.2 | 8.0 | 0.00 | 0.05 | 0.00 | 58 | 1028.5 |
| 20260902154108 | 20 | 157 | 3.2 | 6.4 | 0.00 | 0.05 | 0.00 | 60 | 1028.5 |
| 20260902153603 | 19 | 163 | 3.2 | 6.4 | 0.00 | 0.05 | 0.00 | 61 | 1028.5 |
| 20260902153136 | 19 | 131 | 1.6 | 4.8 | 0.00 | 0.05 | 0.00 | 62 | 1028.6 |
| 20260902152609 | 18 | 55 | 0.0 | 3.2 | 0.00 | 0.05 | 0.00 | 64 | 1028.6 |
| 20260902152103 | 18 | 45 | 0.0 | 3.2 | 0.00 | 0.05 | 0.00 | 65 | 1028.5 |
| 20260902151617 | 18 | 45 | 0.0 | 6.4 | 0.00 | 0.05 | 0.00 | 66 | 1028.4 |
| 20260902151109 | 18 | 45 | 4.8 | 6.4 | 0.00 | 0.05 | 0.00 | 64 | 1028.5 |
| 20260902150606 | 18 | 140 | 0.0 | 0.0 | 0.00 | 0.05 | 0.00 | 68 | 1028.4 |
| 20260902145635 | 17 | 140 | 0.0 | 0.0 | 0.00 | 0.05 | 0.00 | 65 | 1028.4 |
| 20260902145107 | 17 | 143 | 0.0 | 0.0 | 0.00 | 0.05 | 0.00 | 69 | 1028.4 |
| 20260902144601 | 17 | 143 | 0.0 | 0.0 | 0.00 | 0.05 | 0.00 | 67 | 1028.3 |
| 20260902144116 | 17 | 143 | 0.0 | 0.0 | 0.00 | 0.05 | 0.00 | 72 | 1028.3 |
| 20260902143609 | 16 | 143 | 0.0 | 0.0 | 0.00 | 0.05 | 0.00 | 74 | 1028.4 |
| 20260902143104 | 15 | 52 | 0.0 | 0.0 | 0.00 | 0.05 | 0.00 | 79 | 1028.3 |
| 20260902142616 | 15 | 52 | 0.0 | 0.0 | 0.00 | 0.05 | 0.00 | 81 | 1028.3 |
| 20260902142114 | 14 | 52 | 0.0 | 0.0 | 0.00 | 0.05 | 0.00 | 81 | 1028.3 |
| 20260902141608 | 13 | 52 | 0.0 | 0.0 | 0.00 | 0.05 | 0.00 | 83 | 1028.2 |
| 20260902141102 | 12 | 232 | 0.0 | 0.0 | 0.00 | 0.05 | 0.00 | 84 | 1028.1 |
| 20260902140616 | 12 | 55 | 0.0 | 0.0 | 0.00 | 0.05 | 0.00 | 87 | 1028.0 |
| 20260902140110 | 12 | 55 | 0.0 | 0.0 | 0.00 | 0.05 | 0.00 | 88 | 1028.1 |
| 20260902135603 | 11 | 55 | 0.0 | 0.0 | 0.00 | 0.05 | 0.00 | 88 | 1027.9 |
| 20260902135117 | 11 | 55 | 0.0 | 0.0 | 0.00 | 0.05 | 0.00 | 88 | 1027.8 |
| 20260902134611 | 11 | 55 | 0.0 | 0.0 | 0.00 | 0.05 | 0.00 | 88 | 1027.9 |
| 20260902134110 | 11 | 55 | 0.0 | 0.0 | 0.00 | 0.05 | 0.00 | 88 | 1027.8 |
| 20260902133603 | 11 | 55 | 0.0 | 0.0 | 0.00 | 0.05 | 0.00 | 88 | 1027.7 |
| 20260902133117 | 10 | 55 | 0.0 | 0.0 | 0.00 | 0.05 | 0.00 | 88 | 1027.6 |
| 20260902132611 | 10 | 55 | 0.0 | 0.0 | 0.00 | 0.05 | 0.00 | 87 | 1027.6 |
| 20260902132104 | 10 | 55 | 0.0 | 0.0 | 0.00 | 0.05 | 0.00 | 87 | 1027.6 |
| 20260902131618 | 10 | 55 | 0.0 | 0.0 | 0.00 | 0.05 | 0.00 | 87 | 1027.5 |
| 20260902131112 | 10 | 55 | 0.0 | 0.0 | 0.00 | 0.05 | 0.00 | 87 | 1027.5 |
| 20260902130610 | 10 | 55 | 0.0 | 0.0 | 0.00 | 0.05 | 0.00 | 87 | 1027.5 |
| 20260902125616 | 10 | 55 | 0.0 | 0.0 | 0.00 | 0.05 | 0.00 | 87 | 1027.6 |
| 20260902125110 | 10 | 55 | 0.0 | 0.0 | 0.00 | 0.05 | 0.00 | 86 | 1027.6 |
| 20260902124603 | 10 | 55 | 0.0 | 0.0 | 0.00 | 0.05 | 0.00 | 87 | 1027.6 |
| 20260902124117 | 10 | 55 | 0.0 | 0.0 | 0.00 | 0.05 | 0.00 | 87 | 1027.4 |
| 20260902123631 | 10 | 55 | 0.0 | 0.0 | 0.00 | 0.05 | 0.00 | 86 | 1027.4 |
| 20260902123103 | 10 | 55 | 0.0 | 0.0 | 0.00 | 0.08 | 0.00 | 86 | 1027.4 |
| 20260902122617 | 10 | 55 | 0.0 | 0.0 | 0.00 | 0.08 | 0.00 | 86 | 1027.4 |
| 20260902122130 | 10 | 55 | 0.0 | 0.0 | 0.00 | 0.08 | 0.00 | 86 | 1027.2 |
| 20260902121607 | 10 | 55 | 0.0 | 0.0 | 0.00 | 0.08 | 0.00 | 85 | 1027.1 |
| 20260902121121 | 10 | 55 | 0.0 | 0.0 | 0.00 | 0.08 | 0.00 | 85 | 1027.2 |
| 20260902120634 | 10 | 55 | 0.0 | 0.0 | 0.00 | 0.08 | 0.00 | 85 | 1027.2 |
| 20260902120107 | 10 | 55 | 0.0 | 0.0 | 0.00 | 0.08 | 0.00 | 85 | 1027.2 |
| 20260902115641 | 10 | 55 | 0.0 | 0.0 | 0.00 | 0.08 | 0.00 | 85 | 1027.1 |
| 20260902115115 | 11 | 55 | 0.0 | 0.0 | 0.00 | 0.08 | 0.00 | 86 | 1027.2 |
| 20260902114609 | 10 | 55 | 0.0 | 0.0 | 0.00 | 0.08 | 0.00 | 85 | 1027.2 |
| 20260902114103 | 11 | 55 | 0.0 | 0.0 | 0.00 | 0.08 | 0.00 | 85 | 1027.1 |
| 20260902113618 | 10 | 55 | 0.0 | 0.0 | 0.00 | 0.08 | 0.00 | 85 | 1027.1 |
| 20260902113135 | 11 | 55 | 0.0 | 0.0 | 0.00 | 0.10 | 0.00 | 85 | 1027.1 |
| 20260902112608 | 11 | 55 | 0.0 | 0.0 | 0.00 | 0.10 | 0.00 | 85 | 1027.2 |
| 20260902112102 | 11 | 55 | 0.0 | 0.0 | 0.00 | 0.10 | 0.00 | 85 | 1027.2 |
| 20260902111616 | 10 | 55 | 0.0 | 0.0 | 0.00 | 0.10 | 0.00 | 85 | 1027.2 |
| 20260902111110 | 10 | 55 | 0.0 | 0.0 | 0.00 | 0.10 | 0.00 | 85 | 1027.3 |
| 20260902110604 | 10 | 55 | 0.0 | 0.0 | 0.00 | 0.10 | 0.00 | 85 | 1027.3 |
| 20260902110118 | 10 | 55 | 0.0 | 0.0 | 0.00 | 0.10 | 0.00 | 85 | 1027.4 |
| 20260902105611 | 10 | 55 | 0.0 | 0.0 | 0.00 | 0.10 | 0.00 | 84 | 1027.4 |
| 20260902105109 | 11 | 55 | 0.0 | 0.0 | 0.00 | 0.10 | 0.00 | 84 | 1027.3 |
| 20260902104603 | 11 | 55 | 0.0 | 0.0 | 0.00 | 0.10 | 0.00 | 85 | 1027.4 |
| 20260902104116 | 11 | 55 | 0.0 | 0.0 | 0.00 | 0.10 | 0.00 | 85 | 1027.3 |
| 20260902103610 | 11 | 55 | 0.0 | 0.0 | 0.00 | 0.10 | 0.00 | 84 | 1027.2 |
| 20260902103124 | 11 | 55 | 0.0 | 0.0 | 0.00 | 0.10 | 0.00 | 84 | 1027.2 |
| 20260902102619 | 11 | 55 | 0.0 | 0.0 | 0.00 | 0.10 | 0.00 | 84 | 1027.2 |
| 20260902102133 | 11 | 55 | 0.0 | 0.0 | 0.00 | 0.10 | 0.00 | 84 | 1027.2 |
| 20260902101605 | 11 | 55 | 0.0 | 0.0 | 0.00 | 0.10 | 0.00 | 84 | 1027.2 |
| 20260902101140 | 11 | 55 | 0.0 | 0.0 | 0.00 | 0.10 | 0.00 | 85 | 1027.1 |
| 20260902100633 | 11 | 55 | 0.0 | 0.0 | 0.00 | 0.10 | 0.00 | 84 | 1027.2 |
| 20260902100110 | 11 | 55 | 0.0 | 0.0 | 0.00 | 0.10 | 0.00 | 83 | 1027.3 |
| 20260902095604 | 11 | 55 | 0.0 | 0.0 | 0.00 | 0.10 | 0.00 | 83 | 1027.2 |
| 20260902095118 | 11 | 55 | 0.0 | 0.0 | 0.00 | 0.10 | 0.00 | 83 | 1027.3 |
| 20260902094631 | 11 | 55 | 0.0 | 0.0 | 0.00 | 0.10 | 0.00 | 83 | 1027.3 |
| 20260902094105 | 11 | 55 | 0.0 | 0.0 | 0.00 | 0.10 | 0.00 | 83 | 1027.3 |
| 20260902093619 | 11 | 55 | 0.0 | 0.0 | 0.00 | 0.10 | 0.00 | 82 | 1027.4 |
| 20260902093114 | 11 | 55 | 0.0 | 0.0 | 0.00 | 0.10 | 0.00 | 82 | 1027.4 |
| 20260902092607 | 11 | 55 | 0.0 | 0.0 | 0.00 | 0.10 | 0.00 | 81 | 1027.4 |
| 20260902092121 | 11 | 55 | 0.0 | 0.0 | 0.00 | 0.10 | 0.00 | 82 | 1027.4 |
| 20260902091618 | 12 | 55 | 0.0 | 0.0 | 0.00 | 0.10 | 0.00 | 82 | 1027.5 |
| 20260902091113 | 12 | 55 | 0.0 | 0.0 | 0.00 | 0.10 | 0.00 | 82 | 1027.4 |
| 20260902090605 | 12 | 55 | 0.0 | 0.0 | 0.00 | 0.10 | 0.00 | 80 | 1027.4 |
| 20260902090140 | 12 | 55 | 0.0 | 0.0 | 0.00 | 0.10 | 0.00 | 81 | 1027.4 |
| 20260902085614 | 12 | 55 | 0.0 | 0.0 | 0.00 | 0.10 | 0.00 | 81 | 1027.4 |
| 20260902085108 | 12 | 55 | 0.0 | 0.0 | 0.00 | 0.10 | 0.00 | 80 | 1027.5 |
| 20260902084602 | 12 | 55 | 0.0 | 0.0 | 0.00 | 0.10 | 0.00 | 81 | 1027.4 |
| 20260902084116 | 12 | 55 | 0.0 | 0.0 | 0.00 | 0.10 | 0.00 | 80 | 1027.4 |
| 20260902083610 | 12 | 55 | 0.0 | 0.0 | 0.00 | 0.10 | 0.00 | 79 | 1027.4 |
| 20260902083108 | 12 | 55 | 0.0 | 0.0 | 0.00 | 0.10 | 0.00 | 79 | 1027.3 |
| 20260902082620 | 13 | 55 | 0.0 | 0.0 | 0.00 | 0.10 | 0.00 | 79 | 1027.3 |
| 20260902082111 | 13 | 55 | 0.0 | 0.0 | 0.00 | 0.10 | 0.00 | 78 | 1027.3 |
| 20260902081605 | 13 | 55 | 0.0 | 0.0 | 0.00 | 0.10 | 0.00 | 78 | 1027.3 |
| 20260902081120 | 13 | 55 | 0.0 | 0.0 | 0.00 | 0.10 | 0.00 | 80 | 1027.2 |
| 20260902080614 | 13 | 55 | 0.0 | 0.0 | 0.00 | 0.10 | 0.00 | 79 | 1027.3 |
| 20260902080108 | 13 | 55 | 0.0 | 0.0 | 0.00 | 0.10 | 0.00 | 79 | 1027.3 |
| 20260902075602 | 13 | 55 | 0.0 | 0.0 | 0.00 | 0.10 | 0.00 | 79 | 1027.4 |
| 20260902075119 | 13 | 55 | 0.0 | 0.0 | 0.00 | 0.10 | 0.00 | 78 | 1027.4 |